1508551200.59,7961,14.88,73866.3,-1.03,-27.03,-28.31,0,*65
1508551201.85,7962,14.88,73870.0,-1.03,-26.97,-28.21,0,*6B
1508551203.14,7963,14.88,73866.8,-1.01,-26.77,-27.99,0,*6A
1508551204.37,7964,14.88,73868.8,-1.03,-26.49,-27.99,0,*62
1508551205.57,7965,14.88,73870.0,-1.03,-26.87,-28.15,0,*6A
1508551206.86,7966,14.88,73868.8,-1.01,-26.97,-28.25,0,*69
1508551208.12,7967,14.88,73864.8,-0.99,-26.97,-28.25,0,*58
1508551209.34,7968,14.88,73868.0,-1.01,-26.61,-27.93,0,*6C
1508551210.6,7969,14.88,73868.3,-1.01,-26.61,-27.99,0,*67
1508551211.89,7970,14.88,73868.8,-1.01,-26.97,-28.25,0,*6E
1508551213.12,7971,14.88,73868.8,-1.03,-26.65,-27.99,0,*68
1508551214.36,7972,14.88,73868.5,-1.03,-27.03,-28.21,0,*66
1508551215.64,7973,14.88,73868.5,-1.01,-26.93,-28.25,0,*69
1508551216.9,7974,14.88,73870.0,-1.01,-26.81,-28.15,0,*6E
1508551218.13,7975,14.88,73870.5,-1.01,-26.45,-27.93,0,*66
1508551219.38,7976,14.88,73868.5,-1.01,-26.55,-27.93,0,*64
1508551220.66,7977,14.88,73872.5,-1.01,-26.77,-28.09,0,*69
1508551221.9,7978,14.88,73868.0,-1.03,-26.77,-28.15,0,*69
1508551223.14,7979,14.88,73872.3,-1.03,-26.65,-27.99,0,*60
1508551224.39,7980,14.88,73870.5,-1.01,-26.45,-27.83,0,*6D
1508551225.62,7981,14.88,73866.0,-1.03,-26.65,-27.99,0,*67
1508551226.86,7982,14.88,73870.3,-1.03,-26.65,-28.05,0,*6E
1508551228.09,7983,14.88,73870.5,-1.03,-26.87,-28.21,0,*65
1508551229.31,7984,14.88,73868.3,-1.01,-26.61,-27.93,0,*6E
1508551230.55,7985,14.88,73868.8,-1.03,-26.65,-27.99,0,*63
1508551231.79,7986,14.88,73870.5,-1.03,-26.65,-27.99,0,*60
1508551232.99,7987,14.88,73868.3,-1.03,-26.65,-27.93,0,*6B
1508551234.22,7988,14.88,73868.5,-1.01,-26.45,-27.93,0,*64
1508551235.48,7989,14.88,73872.0,-1.01,-26.65,-27.99,0,*6D
1508551236.69,7990,14.88,73870.3,-1.03,-26.61,-27.89,0,*62
1508551237.95,7991,14.88,73870.5,-1.01,-26.77,-28.15,0,*6C
1508551239.18,7992,14.88,73868.3,-1.01,-26.61,-27.93,0,*69
1508551240.43,7993,14.88,73868.5,-1.01,-26.45,-27.83,0,*6F
1508551241.65,7994,14.88,73870.5,-1.01,-26.61,-27.93,0,*6F
1508551242.91,7995,14.88,73870.0,-1.01,-26.29,-27.67,0,*69
1508551244.14,7996,14.88,73868.3,-1.01,-26.45,-27.77,0,*61
1508551245.37,7997,14.88,73870.0,-0.99,-26.93,-28.15,0,*50
1508551246.56,7998,14.88,73872.0,-0.99,-26.61,-27.93,0,*53
1508551247.81,7999,14.88,73870.0,-1.01,-26.61,-27.83,0,*63
1508551249.1,8000,14.88,73872.0,-1.01,-26.77,-28.09,0,*6F
1508551250.36,8001,14.88,73870.3,-1.01,-26.81,-28.15,0,*6A
1508551251.62,8002,14.88,73872.3,-1.01,-26.93,-28.15,0,*6A
1508551252.91,8003,14.88,73868.8,-1.01,-26.77,-27.99,0,*6A
1508551254.13,8004,14.88,73870.8,-1.01,-26.45,-27.93,0,*66
1508551255.41,8005,14.88,73870.8,-1.01,-26.55,-27.99,0,*6C
1508551256.62,8006,14.88,73870.5,-1.03,-26.49,-27.89,0,*61
1508551257.82,8007,14.88,73868.8,-0.99,-26.39,-27.67,0,*55
1508551259.07,8008,14.88,73868.3,-1.01,-26.55,-27.93,0,*6B
1508551260.29,8009,14.88,73870.8,-0.99,-26.77,-27.93,0,*5A
1508551261.52,8010,14.88,73868.5,-1.01,-26.61,-27.93,0,*65
1508551262.77,8011,14.88,73870.8,-1.01,-26.45,-27.83,0,*63
1508551264.0,8012,14.88,73870.5,-1.01,-26.45,-27.77,0,*6B
1508551265.25,8013,14.88,73866.8,-1.01,-26.45,-27.83,0,*61
1508551266.51,8014,14.88,73868.8,-1.01,-26.65,-27.99,0,*6F
1508551267.74,8015,14.88,73870.0,-1.01,-26.61,-27.93,0,*60
1508551268.97,8016,14.88,73868.5,-1.01,-26.61,-27.93,0,*63
1508551270.22,8017,14.88,73868.0,-1.01,-26.45,-27.83,0,*65
1508551271.49,8018,14.88,73866.3,-1.01,-26.55,-27.83,0,*6B
1508551272.78,8019,14.88,73872.8,-1.01,-26.77,-27.99,0,*61
1508551274.0,8020,14.88,73870.3,-1.01,-26.45,-27.77,0,*6A
1508551275.26,8021,14.88,73872.5,-1.03,-26.71,-27.99,0,*6E
1508551276.53,8022,14.88,73872.8,-1.01,-26.13,-27.45,0,*6A
1508551277.76,8023,14.88,73872.5,-1.01,-26.39,-27.67,0,*63
1508551278.99,8024,14.88,73870.5,-1.01,-26.61,-27.93,0,*62
1508551280.22,8025,14.88,73868.5,-1.01,-26.61,-27.93,0,*63
1508551281.44,8026,14.88,73868.8,-1.01,-26.61,-27.93,0,*60
1508551282.67,8027,14.88,73870.3,-1.03,-26.61,-27.99,0,*69
1508551283.93,8028,14.88,73872.3,-1.01,-26.65,-27.83,0,*6B
1508551285.16,8029,14.88,73870.3,-1.01,-26.61,-27.93,0,*6F
1508551286.39,8030,14.88,73870.0,-1.01,-26.65,-27.93,0,*63
1508551287.67,8031,14.88,73872.5,-1.01,-26.55,-27.83,0,*60
1508551288.94,8032,14.88,73874.3,-1.01,-26.55,-27.83,0,*63
1508551290.22,8033,14.88,73870.5,-1.01,-26.55,-27.83,0,*62
1508551291.42,8034,14.88,73870.8,-1.03,-26.61,-27.89,0,*6A
1508551292.63,8035,14.88,73868.5,-1.03,-26.65,-27.89,0,*6F
1508551293.88,8036,14.88,73870.5,-1.03,-26.71,-27.99,0,*68
1508551295.11,8037,14.88,73870.8,-1.01,-26.65,-27.93,0,*64
1508551296.35,8038,14.88,73872.3,-1.03,-26.65,-27.83,0,*68
1508551297.58,8039,14.88,73872.0,-1.01,-26.45,-27.67,0,*63
1508551298.81,8040,14.88,73872.0,-1.03,-26.61,-27.83,0,*63
1508551300.08,8041,14.88,73872.0,-1.01,-26.55,-27.83,0,*67
1508551301.31,8042,14.88,73872.3,-1.03,-26.61,-27.83,0,*61
1508551302.53,8043,14.88,73872.8,-1.01,-26.45,-27.77,0,*6F
1508551303.76,8044,14.88,73872.3,-1.03,-26.61,-27.83,0,*67
1508551305.01,8045,14.88,73868.8,-1.01,-26.29,-27.51,0,*67
1508551306.22,8046,14.88,73872.8,-1.03,-26.45,-27.71,0,*6E
1508551307.44,8047,14.88,73874.0,-1.03,-26.49,-27.83,0,*6E
1508551308.65,8048,14.88,73876.0,-1.03,-26.61,-27.89,0,*61
1508551309.86,8049,14.88,73878.3,-1.03,-26.65,-27.89,0,*64
1508551311.09,8050,14.88,73874.8,-1.05,-26.45,-27.67,0,*68
1508551312.32,8051,14.88,73872.8,-1.03,-26.33,-27.51,0,*6B
1508551313.58,8052,14.88,73872.8,-1.03,-26.33,-27.61,0,*6B
1508551314.8,8053,14.88,73874.0,-1.03,-26.45,-27.45,0,*6D
1508551316.01,8054,14.88,73876.5,-1.03,-26.49,-27.71,0,*61
1508551317.24,8055,14.88,73874.8,-1.03,-26.45,-27.61,0,*6D
1508551318.5,8056,14.88,73872.3,-1.03,-26.17,-27.35,0,*68
1508551319.75,8057,14.88,73874.5,-1.01,-26.39,-27.45,0,*60
1508551320.98,8058,14.88,73870.0,-1.03,-26.49,-27.61,0,*6C
1508551322.21,8059,14.88,73876.0,-1.03,-26.33,-27.51,0,*63
1508551323.44,8060,14.88,73872.5,-1.03,-26.45,-27.61,0,*6B
1508551324.67,8061,14.88,73874.5,-1.03,-26.45,-27.61,0,*6A
1508551325.87,8062,14.88,73872.0,-1.03,-26.45,-27.51,0,*6A
1508551327.13,8063,14.88,73874.5,-1.03,-26.17,-27.35,0,*6E
1508551328.38,8064,14.88,73874.5,-1.03,-26.33,-27.45,0,*68
1508551329.64,8065,14.88,73872.8,-1.01,-26.39,-27.61,0,*67
1508551330.87,8066,14.88,73872.8,-1.03,-26.61,-27.61,0,*6B
1508551332.12,8067,14.88,73876.3,-1.03,-26.29,-27.45,0,*60
1508551333.34,8068,14.88,73874.0,-1.01,-26.23,-27.29,0,*6D
1508551334.59,8069,14.88,73872.0,-1.01,-26.23,-27.23,0,*66
1508551335.84,8070,14.88,73872.3,-1.03,-26.29,-27.45,0,*66
1508551337.1,8071,14.88,73868.5,-1.03,-26.33,-27.35,0,*6B
1508551338.35,8072,14.88,73872.0,-1.03,-26.13,-27.19,0,*64
1508551339.61,8073,14.88,73870.3,-1.03,-26.33,-27.45,0,*6E
1508551340.81,8074,14.88,73872.0,-1.03,-26.45,-27.51,0,*6D
1508551342.07,8075,14.88,73872.3,-1.01,-26.39,-27.39,0,*6B
1508551343.35,8076,14.88,73870.0,-1.05,-26.33,-27.35,0,*6A
1508551344.57,8077,14.88,73868.0,-1.03,-26.49,-27.45,0,*67
1508551345.8,8078,14.88,73868.8,-1.03,-26.45,-27.45,0,*64
1508551347.06,8079,14.88,73874.3,-1.03,-26.33,-27.35,0,*63
1508551348.3,8080,14.88,73872.0,-1.03,-26.33,-27.29,0,*68
1508551349.56,8081,14.88,73872.5,-1.03,-26.33,-27.35,0,*64
1508551350.84,8082,14.88,73870.8,-1.05,-26.29,-27.19,0,*64
1508551352.11,8083,14.88,73872.5,-1.05,-26.29,-27.19,0,*65
1508551353.37,8084,14.88,73872.3,-1.05,-26.33,-27.29,0,*6A
1508551354.63,8085,14.88,73870.0,-1.03,-26.33,-27.19,0,*6E
1508551355.86,8086,14.88,73868.8,-1.03,-26.13,-27.03,0,*64
1508551357.1,8087,14.88,73870.5,-1.03,-26.17,-27.03,0,*61
1508551358.33,8088,14.88,73872.3,-1.03,-26.29,-27.03,0,*63
1508551359.61,8089,14.88,73870.8,-1.01,-26.13,-26.97,0,*65
1508551360.84,8090,14.88,73874.0,-1.03,-26.29,-27.13,0,*6B
1508551362.06,8091,14.88,73874.8,-1.01,-26.23,-27.07,0,*67
1508551363.28,8092,14.88,73872.3,-1.03,-26.45,-27.19,0,*69
1508551364.54,8093,14.88,73866.8,-1.03,-26.29,-27.19,0,*62
1508551365.77,8094,14.88,73868.3,-1.03,-26.33,-27.13,0,*64
1508551367.03,8095,14.88,73868.3,-1.03,-26.17,-26.97,0,*6E
1508551368.27,8096,14.88,73868.5,-1.01,-26.23,-26.93,0,*6C
1508551369.51,8097,14.88,73868.5,-1.03,-26.33,-27.13,0,*67
1508551370.73,8098,14.88,73868.3,-1.03,-26.13,-26.87,0,*66
1508551371.94,8099,14.88,73868.0,-1.03,-26.03,-26.87,0,*66
1508551373.2,8100,14.88,73870.0,-1.01,-25.91,-26.77,0,*62
1508551374.44,8101,14.88,73870.5,-1.01,-26.23,-26.93,0,*63
1508551375.7,8102,14.88,73868.5,-1.01,-25.75,-26.39,0,*60
1508551376.98,8103,14.88,73870.0,-1.01,-25.97,-26.77,0,*67
1508551378.27,8104,14.88,73868.0,-1.01,-26.13,-26.81,0,*66
1508551379.54,8105,14.88,73876.0,-1.01,-26.29,-26.93,0,*6D
1508551380.77,8106,14.88,73872.5,-1.03,-26.29,-26.87,0,*69
1508551382.05,8107,14.88,73872.0,-1.01,-26.29,-26.97,0,*6B
1508551383.31,8108,14.88,73870.3,-1.01,-25.97,-26.61,0,*6B
1508551384.56,8109,14.88,73872.8,-1.01,-25.81,-26.45,0,*6B
1508551385.78,8110,14.88,73874.0,-1.01,-25.91,-26.61,0,*64
1508551387.01,8111,14.88,73874.0,-1.01,-25.91,-26.45,0,*63
1508551388.26,8112,14.88,73874.0,-1.03,-25.97,-26.81,0,*6C
1508551389.52,8113,14.88,73874.0,-1.01,-26.13,-26.61,0,*6E
1508551390.74,8114,14.88,73878.0,-1.01,-25.91,-26.45,0,*66
1508551391.99,8115,14.88,73872.8,-1.01,-26.07,-26.55,0,*6A
1508551393.22,8116,14.88,73872.5,-1.01,-26.23,-26.61,0,*68
1508551394.46,8117,14.88,73872.5,-1.01,-26.23,-26.81,0,*67
1508551395.72,8118,14.88,73872.8,-1.01,-25.65,-26.13,0,*62
1508551396.95,8119,14.88,73872.3,-0.97,-26.03,-26.49,0,*51
1508551398.19,8120,14.88,73874.3,-0.99,-26.29,-26.81,0,*59
1508551399.42,8121,14.88,73872.3,-0.99,-26.39,-26.93,0,*5A
1508551400.64,8122,14.88,73872.8,-0.99,-26.13,-26.61,0,*5C
1508551401.86,8123,14.88,73874.0,-0.99,-26.13,-26.45,0,*5B
1508551403.1,8124,14.88,73872.3,-0.99,-26.29,-26.93,0,*5E
1508551404.33,8125,14.88,73876.0,-0.99,-26.39,-26.81,0,*5D
1508551405.52,8126,14.88,73874.8,-0.99,-26.23,-26.61,0,*5B
1508551406.78,8127,14.88,73872.0,-1.01,-26.39,-26.81,0,*6F
1508551408.0,8128,14.88,73872.5,-1.01,-26.23,-26.61,0,*65
1508551409.24,8129,14.88,73872.8,-1.01,-26.23,-26.55,0,*63
1508551410.5,8130,14.88,73876.0,-1.01,-26.13,-26.61,0,*6F
1508551411.75,8131,14.88,73874.5,-1.01,-26.39,-26.77,0,*61
1508551413.0,8132,14.88,73876.0,-1.01,-26.13,-26.45,0,*6B
1508551414.23,8133,14.88,73876.5,-1.01,-26.23,-26.61,0,*6F
1508551415.48,8134,14.88,73872.3,-1.01,-26.29,-26.45,0,*64
1508551416.76,8135,14.88,73876.8,-1.01,-25.97,-26.55,0,*62
1508551417.99,8136,14.88,73872.0,-1.01,-25.65,-26.07,0,*6B
1508551419.22,8137,14.88,73876.5,-1.01,-26.07,-26.39,0,*60
1508551420.51,8138,14.88,73876.5,-1.01,-25.97,-26.29,0,*64
1508551421.76,8139,14.88,73876.8,-1.01,-25.97,-26.23,0,*6F
1508551423.01,8140,14.88,73876.3,-0.99,-25.81,-26.13,0,*55
1508551424.26,8141,14.88,73876.5,-1.01,-25.97,-26.23,0,*60
1508551425.45,8142,14.88,73878.8,-0.99,-25.91,-26.23,0,*55
1508551426.65,8143,14.88,73880.0,-0.99,-25.91,-26.23,0,*54
1508551427.92,8144,14.88,73878.8,-0.97,-25.75,-26.17,0,*50
1508551429.17,8145,14.88,73878.5,-0.97,-25.75,-26.03,0,*54
1508551430.4,8146,14.88,73876.5,-0.99,-26.07,-26.29,0,*57
1508551431.65,8147,14.88,73880.8,-0.99,-26.13,-26.29,0,*53
1508551432.87,8148,14.88,73876.0,-0.99,-25.91,-26.13,0,*5C
1508551434.09,8149,14.88,73878.8,-0.97,-25.87,-26.07,0,*51
1508551435.31,8150,14.88,73874.3,-0.97,-25.87,-26.07,0,*59
1508551436.54,8151,14.88,73876.5,-0.99,-25.61,-25.97,0,*54
1508551437.77,8152,14.88,73878.8,-0.99,-25.65,-25.97,0,*53
1508551438.96,8153,14.88,73874.3,-0.99,-25.91,-26.23,0,*55
1508551440.18,8154,14.88,73878.5,-0.97,-26.03,-26.23,0,*54
1508551441.4,8155,14.88,73878.5,-0.97,-25.61,-25.87,0,*5F
1508551442.63,8156,14.88,73872.8,-0.97,-25.49,-25.87,0,*56
1508551443.9,8157,14.88,73872.0,-0.97,-25.55,-25.81,0,*5C
1508551445.12,8158,14.88,73874.3,-0.97,-25.61,-25.87,0,*52
1508551446.37,8159,14.88,73872.0,-0.97,-25.71,-25.87,0,*52
1508551447.62,8160,14.88,73876.3,-0.99,-25.75,-25.81,0,*54
1508551448.87,8161,14.88,73876.0,-0.97,-25.49,-25.71,0,*5B
1508551450.12,8162,14.88,73876.3,-0.97,-25.75,-26.03,0,*51
1508551451.34,8163,14.88,73874.8,-0.97,-25.91,-26.07,0,*5E
1508551452.57,8164,14.88,73878.0,-0.99,-25.65,-25.81,0,*51
1508551453.81,8165,14.88,73876.8,-0.97,-25.71,-25.87,0,*5D
1508551455.04,8166,14.88,73878.5,-0.99,-25.65,-25.81,0,*53
1508551456.26,8167,14.88,73874.5,-0.99,-25.65,-25.75,0,*59
1508551457.52,8168,14.88,73874.0,-0.97,-25.49,-25.71,0,*52
1508551458.74,8169,14.88,73872.5,-0.99,-25.75,-25.91,0,*5C
1508551460.02,8170,14.88,73872.5,-0.97,-25.55,-25.75,0,*52
1508551461.24,8171,14.88,73874.5,-0.99,-25.61,-25.81,0,*51
1508551462.47,8172,14.88,73878.3,-0.99,-25.55,-25.65,0,*5F
1508551463.69,8173,14.88,73876.3,-0.97,-25.35,-25.39,0,*5F
1508551464.91,8174,14.88,73878.3,-0.99,-25.39,-25.45,0,*51
1508551466.14,8175,14.88,73878.0,-0.97,-25.39,-25.39,0,*55
1508551467.36,8176,14.88,73874.5,-0.97,-25.39,-25.49,0,*51
1508551468.58,8177,14.88,73874.5,-0.97,-25.35,-25.35,0,*57
1508551469.8,8178,14.88,73876.3,-0.97,-25.23,-25.39,0,*53
1508551471.05,8179,14.88,73872.0,-0.97,-25.49,-25.55,0,*54
1508551472.27,8180,14.88,73874.5,-0.97,-25.23,-25.35,0,*58
1508551473.49,8181,14.88,73878.0,-0.95,-25.45,-25.49,0,*50
1508551474.72,8182,14.88,73876.0,-0.97,-25.49,-25.49,0,*5D
1508551475.94,8183,14.88,73878.3,-0.97,-25.19,-25.23,0,*55
1508551477.21,8184,14.88,73878.3,-0.97,-25.03,-25.03,0,*5B
1508551478.42,8185,14.88,73874.3,-0.97,-25.09,-25.23,0,*52
1508551479.67,8186,14.88,73876.3,-0.97,-25.03,-25.09,0,*53
1508551480.92,8187,14.88,73874.8,-0.99,-25.29,-25.45,0,*5C
1508551482.13,8188,14.88,73878.3,-0.97,-25.19,-25.19,0,*57
1508551483.35,8189,14.88,73878.0,-0.97,-25.23,-25.23,0,*56
1508551484.57,8190,14.88,73878.5,-0.97,-25.19,-25.09,0,*5F
1508551485.78,8191,14.88,73878.8,-0.97,-25.19,-25.19,0,*5F
1508551487.03,8192,14.88,73876.5,-0.97,-25.03,-25.09,0,*56
1508551488.3,8193,14.88,73878.0,-0.97,-24.87,-24.87,0,*5D
1508551489.52,8194,14.88,73876.0,-0.97,-24.77,-24.93,0,*50
1508551490.77,8195,14.88,73876.3,-0.95,-24.87,-24.83,0,*5D
1508551492.02,8196,14.88,73876.3,-0.95,-24.71,-24.83,0,*57
1508551493.28,8197,14.88,73878.5,-0.95,-24.71,-24.83,0,*56
1508551494.52,8198,14.88,73876.0,-0.95,-24.67,-24.83,0,*5E
1508551495.72,8199,14.88,73874.3,-0.95,-24.35,-24.57,0,*51
1508551496.98,8200,14.88,73876.0,-0.95,-24.71,-24.71,0,*56
1508551498.24,8201,14.88,73878.0,-0.95,-24.71,-24.87,0,*5E
1508551499.48,8202,14.88,73876.8,-0.95,-24.67,-24.83,0,*5E
1508551500.73,8203,14.88,73876.5,-0.95,-24.67,-24.67,0,*55
1508551501.95,8204,14.88,73878.8,-0.93,-24.51,-24.51,0,*54
1508551503.21,8205,14.88,73874.3,-0.95,-24.71,-24.67,0,*54
1508551504.49,8206,14.88,73878.8,-0.93,-24.71,-24.71,0,*56
1508551505.75,8207,14.88,73880.0,-0.95,-24.71,-24.71,0,*51
1508551506.97,8208,14.88,73876.5,-0.93,-24.35,-24.35,0,*58
1508551508.19,8209,14.88,73872.8,-0.95,-24.51,-24.67,0,*5A
1508551509.41,8210,14.88,73874.8,-0.95,-24.57,-24.67,0,*54
1508551510.66,8211,14.88,73872.5,-0.95,-24.67,-24.83,0,*5C
1508551511.88,8212,14.88,73878.3,-0.95,-24.51,-24.67,0,*50
1508551513.11,8213,14.88,73880.3,-0.95,-24.35,-24.41,0,*57
1508551514.31,8214,14.88,73878.8,-0.95,-24.31,-24.35,0,*57
1508551515.53,8215,14.88,73874.3,-0.95,-24.05,-24.15,0,*53
1508551516.75,8216,14.81,73872.0,-0.93,-24.05,-24.05,0,*57
1508551517.97,8217,14.88,73878.3,-0.93,-24.31,-24.35,0,*52
1508551519.22,8218,14.88,73876.0,-0.93,-24.05,-24.21,0,*5F
1508551520.49,8219,14.88,73876.3,-0.93,-24.15,-24.15,0,*58
1508551521.71,8220,14.88,73878.8,-0.95,-24.31,-24.41,0,*53
1508551522.91,8221,14.88,73878.5,-0.95,-24.35,-24.57,0,*51
1508551524.13,8222,14.88,73878.3,-0.93,-24.35,-24.35,0,*50
1508551525.33,8223,14.88,73880.8,-0.95,-24.31,-24.35,0,*53
1508551526.57,8224,14.88,73876.8,-0.93,-24.15,-24.31,0,*50
1508551527.79,8225,14.88,73874.3,-0.95,-24.15,-24.31,0,*57
1508551529.07,8226,14.88,73876.0,-0.93,-24.21,-24.21,0,*54
1508551530.29,8227,14.88,73878.3,-0.95,-24.05,-24.15,0,*52
1508551531.54,8228,14.88,73878.8,-0.95,-23.69,-23.85,0,*5E
1508551532.79,8229,14.88,73878.0,-0.95,-23.99,-24.21,0,*59
1508551534.01,8230,14.88,73880.8,-0.95,-23.85,-23.89,0,*59
1508551535.26,8231,14.88,73880.8,-0.95,-23.53,-23.85,0,*5F
1508551536.5,8232,14.88,73880.5,-0.95,-23.85,-23.99,0,*5A
1508551537.72,8233,14.88,73882.3,-0.93,-23.89,-24.05,0,*53
1508551538.94,8234,14.88,73876.3,-0.93,-23.43,-23.89,0,*51
1508551540.16,8235,14.88,73880.8,-0.95,-23.53,-23.75,0,*54
1508551541.42,8236,14.88,73880.3,-0.95,-23.53,-23.85,0,*58
1508551542.64,8237,14.88,73878.5,-0.95,-23.53,-23.75,0,*56
1508551543.87,8238,14.88,73880.0,-0.95,-23.59,-23.85,0,*5C
1508551545.07,8239,14.88,73880.3,-0.95,-23.43,-23.75,0,*59
1508551546.3,8240,14.88,73880.3,-0.95,-23.33,-23.43,0,*55
1508551547.54,8241,14.88,73880.5,-0.95,-23.23,-23.53,0,*54
1508551548.79,8242,14.88,73882.5,-0.93,-23.19,-23.43,0,*59
1508551550.06,8243,14.88,73878.5,-0.93,-23.33,-23.53,0,*51
1508551551.28,8244,14.88,73880.3,-0.95,-23.19,-23.39,0,*54
1508551552.54,8245,14.81,73876.5,-0.93,-23.19,-23.53,0,*5F
1508551553.79,8246,14.88,73880.8,-0.93,-23.03,-23.39,0,*5B
1508551555.03,8247,14.88,73880.8,-0.93,-22.87,-23.23,0,*5C
1508551556.26,8248,14.88,73880.3,-0.93,-22.93,-23.39,0,*5D
1508551557.51,8249,14.88,73880.5,-0.93,-22.77,-23.09,0,*55
1508551558.76,8250,14.88,73880.8,-0.93,-22.77,-23.09,0,*5D
1508551560.01,8251,14.88,73882.8,-0.93,-23.09,-23.33,0,*5D
1508551561.25,8252,14.88,73882.0,-0.93,-22.87,-23.19,0,*51
1508551562.46,8253,14.88,73880.0,-0.91,-22.57,-22.97,0,*58
1508551563.68,8254,14.88,73878.0,-0.91,-22.83,-23.33,0,*59
1508551564.9,8255,14.88,73876.0,-0.91,-22.57,-23.03,0,*52
1508551566.11,8256,14.88,73876.0,-0.91,-22.53,-22.97,0,*59
1508551567.36,8257,14.81,73872.8,-0.89,-22.57,-23.03,0,*59
1508551568.56,8258,14.88,73876.8,-0.91,-22.53,-22.97,0,*57
1508551569.79,8259,14.88,73878.5,-0.91,-22.57,-23.19,0,*55
1508551570.99,8260,14.88,73880.0,-0.91,-22.57,-23.13,0,*55
1508551572.26,8261,14.88,73876.3,-0.93,-22.77,-23.33,0,*56
1508551573.49,8262,14.88,73876.8,-0.91,-22.67,-23.19,0,*5E
1508551574.69,8263,14.88,73878.0,-0.91,-22.37,-22.97,0,*5D
1508551575.93,8264,14.88,73876.8,-0.91,-22.21,-22.73,0,*57
1508551577.18,8265,14.88,73878.0,-0.91,-22.21,-22.73,0,*56
1508551578.37,8266,14.88,73882.5,-0.91,-22.07,-22.67,0,*54
1508551579.61,8267,14.81,73876.5,-0.91,-22.17,-22.73,0,*51
1508551580.8,8268,14.88,73878.8,-0.91,-22.07,-22.67,0,*5A
1508551582.0,8269,14.88,73880.0,-0.91,-22.27,-22.83,0,*53
1508551583.24,8270,14.88,73882.5,-0.89,-22.21,-22.83,0,*54
1508551584.49,8271,14.81,73880.5,-0.91,-22.17,-22.73,0,*56
1508551585.74,8272,14.81,73882.3,-0.91,-22.17,-22.73,0,*55
1508551586.93,8273,14.88,73882.0,-0.91,-22.03,-22.67,0,*54
1508551588.16,8274,14.88,73880.8,-0.91,-21.87,-22.57,0,*5F
1508551589.38,8275,14.88,73882.3,-0.91,-21.87,-22.57,0,*5E
1508551590.58,8276,14.88,73886.3,-0.91,-21.77,-22.27,0,*55
1508551591.82,8277,14.81,73876.3,-0.89,-21.87,-22.41,0,*52
1508551593.04,8278,14.88,73882.3,-0.91,-21.93,-22.73,0,*50
1508551594.27,8279,14.88,73882.0,-0.91,-21.87,-22.57,0,*52
1508551595.47,8280,14.88,73880.3,-0.91,-21.47,-22.07,0,*5D
1508551596.66,8281,14.88,73880.0,-0.91,-21.63,-22.53,0,*5B
1508551597.86,8282,14.88,73880.3,-0.91,-21.77,-22.57,0,*59
1508551599.08,8283,14.88,73880.0,-0.89,-21.77,-22.53,0,*55
1508551600.32,8284,14.88,73878.5,-0.89,-21.57,-22.41,0,*53
1508551601.55,8285,14.88,73880.0,-0.89,-21.57,-22.41,0,*52
1508551602.77,8286,14.88,73880.3,-0.91,-21.47,-22.21,0,*5F
1508551603.96,8287,14.88,73880.5,-0.91,-21.63,-22.41,0,*5E
1508551605.18,8288,14.88,73880.5,-0.91,-21.43,-22.21,0,*55
1508551606.39,8289,14.88,73878.3,-0.91,-21.43,-22.21,0,*54
1508551607.64,8290,14.88,73876.8,-0.89,-21.43,-22.17,0,*50
1508551608.86,8291,14.88,73878.5,-0.91,-21.33,-22.03,0,*5A
1508551610.08,8292,14.88,73878.5,-0.91,-21.27,-22.03,0,*5C
1508551611.31,8293,14.88,73880.8,-0.91,-21.23,-22.03,0,*59
1508551612.55,8294,14.88,73878.0,-0.89,-21.43,-22.17,0,*54
1508551613.82,8295,14.88,73880.0,-0.89,-21.27,-22.17,0,*57
1508551615.02,8296,14.88,73876.8,-0.91,-21.13,-22.03,0,*5F
1508551616.26,8297,14.88,73876.8,-0.89,-21.33,-22.07,0,*51
1508551617.48,8298,14.88,73880.8,-0.91,-21.27,-22.07,0,*52
1508551618.73,8299,14.88,73876.0,-0.89,-21.23,-22.03,0,*5A
1508551619.95,8300,14.88,73878.5,-0.91,-20.83,-21.77,0,*59
1508551621.14,8301,14.88,73876.3,-0.91,-21.09,-21.93,0,*51
1508551622.37,8302,14.88,73878.5,-0.91,-21.23,-21.93,0,*5A
1508551623.59,8303,14.88,73878.8,-0.91,-21.09,-21.87,0,*56
1508551624.83,8304,14.88,73880.0,-0.89,-20.63,-21.57,0,*58
1508551626.05,8305,14.81,73874.0,-0.91,-20.83,-21.77,0,*5C
1508551627.3,8306,14.88,73878.0,-0.89,-20.99,-21.93,0,*57
1508551628.52,8307,14.88,73878.8,-0.91,-20.93,-21.87,0,*50
1508551629.74,8308,14.88,73878.0,-0.91,-20.79,-21.77,0,*54
1508551630.98,8309,14.88,73874.3,-0.89,-20.63,-21.57,0,*55
1508551632.2,8310,14.88,73878.3,-0.91,-20.83,-21.77,0,*58
1508551633.44,8311,14.88,73878.5,-0.89,-20.63,-21.57,0,*5C
1508551634.66,8312,14.88,73878.8,-0.89,-20.63,-21.47,0,*5E
1508551635.9,8313,14.88,73876.0,-0.89,-20.53,-21.47,0,*5C
1508551637.1,8314,14.88,73874.8,-0.91,-20.69,-21.63,0,*5D
1508551638.31,8315,14.88,73876.0,-0.89,-20.63,-21.63,0,*5F
1508551639.53,8316,14.88,73878.0,-0.89,-20.69,-21.63,0,*56
1508551640.77,8317,14.88,73874.3,-0.85,-20.59,-21.53,0,*5B
1508551642.01,8318,14.88,73878.3,-0.85,-20.49,-21.39,0,*59
1508551643.23,8319,14.88,73878.8,-0.91,-20.53,-21.43,0,*5B
1508551644.47,8320,14.88,73876.8,-0.89,-20.49,-21.47,0,*57
1508551645.71,8321,14.88,73878.5,-0.91,-20.35,-21.33,0,*57
1508551646.95,8322,14.88,73872.8,-0.85,-20.29,-21.23,0,*5D
1508551648.22,8323,14.88,73874.0,-0.89,-20.35,-21.27,0,*59
1508551649.45,8324,14.81,73874.3,-0.89,-20.29,-21.27,0,*53
1508551650.7,8325,14.88,73876.5,-0.91,-20.35,-21.23,0,*52
1508551651.95,8326,14.88,73872.8,-0.89,-19.99,-20.99,0,*54
1508551653.18,8327,14.88,73878.0,-0.89,-20.05,-20.99,0,*5A
1508551654.43,8328,14.88,73876.3,-0.89,-19.61,-20.69,0,*52
1508551655.68,8329,14.88,73878.5,-0.85,-19.85,-20.89,0,*5B
1508551656.92,8330,14.88,73874.3,-0.85,-20.09,-21.03,0,*5E
1508551658.17,8331,14.88,73872.5,-0.85,-19.85,-20.89,0,*52
1508551659.41,8332,14.88,73874.8,-0.83,-20.05,-20.99,0,*54
1508551660.64,8333,14.88,73872.5,-0.85,-20.15,-21.09,0,*5A
1508551661.91,8334,14.88,73878.0,-0.85,-20.15,-21.03,0,*57
1508551663.18,8335,14.88,73878.5,-0.83,-19.81,-20.83,0,*5E
1508551664.42,8336,14.81,73876.0,-0.85,-19.81,-20.89,0,*51
1508551665.66,8337,14.88,73876.8,-0.85,-19.71,-20.79,0,*50
1508551666.91,8338,14.88,73878.5,-0.85,-19.85,-20.89,0,*5B
1508551668.16,8339,14.88,73876.0,-0.85,-19.85,-20.89,0,*5A
1508551669.41,8340,14.88,73874.8,-0.83,-19.91,-20.83,0,*5D
1508551670.67,8341,14.88,73876.0,-0.85,-19.85,-20.79,0,*5A
1508551671.94,8342,14.88,73876.5,-0.85,-19.65,-20.79,0,*57
1508551673.19,8343,14.81,73874.0,-0.85,-19.57,-20.59,0,*55
1508551674.44,8344,14.88,73878.5,-0.83,-19.65,-20.69,0,*56
1508551675.67,8345,14.88,73878.5,-0.85,-19.71,-20.63,0,*5E
1508551676.9,8346,14.88,73872.8,-0.85,-19.51,-20.43,0,*5D
1508551678.14,8347,14.88,73878.3,-0.85,-19.41,-20.43,0,*5D
1508551679.4,8348,14.81,73874.0,-0.85,-19.57,-20.59,0,*5E
1508551680.65,8349,14.88,73876.8,-0.85,-19.57,-20.59,0,*5F
1508551681.93,8350,14.88,73874.5,-0.85,-19.57,-20.49,0,*56
1508551683.2,8351,14.88,73874.3,-0.85,-19.41,-20.49,0,*50
1508551684.43,8352,14.88,73872.5,-0.85,-19.51,-20.43,0,*58
1508551685.68,8353,14.81,73874.5,-0.85,-19.51,-20.49,0,*53
1508551686.91,8354,14.88,73872.8,-0.85,-19.51,-20.43,0,*5E
1508551688.18,8355,14.81,73872.3,-0.85,-19.27,-20.35,0,*5F
1508551689.41,8356,14.88,73878.3,-0.85,-19.17,-20.25,0,*5E
1508551690.68,8357,14.88,73876.5,-0.85,-19.23,-20.35,0,*59
1508551691.94,8358,14.88,73878.5,-0.85,-19.27,-20.25,0,*53
1508551693.16,8359,14.88,73878.0,-0.85,-19.17,-20.25,0,*51
1508551694.39,8360,14.88,73880.3,-0.85,-19.07,-20.25,0,*5A
1508551695.62,8361,14.88,73876.0,-0.83,-18.83,-19.95,0,*51
1508551696.86,8362,14.88,73876.8,-0.85,-18.89,-19.95,0,*5E
1508551698.1,8363,14.88,73878.5,-0.85,-18.89,-19.95,0,*5F
1508551699.33,8364,14.88,73878.0,-0.83,-18.69,-19.75,0,*5E
1508551700.58,8365,14.81,73874.0,-0.83,-18.89,-19.95,0,*5F
1508551701.81,8366,14.88,73874.3,-0.83,-18.73,-19.95,0,*59
1508551703.03,8367,14.81,73876.0,-0.83,-18.73,-19.91,0,*5C